Regional Weather Roundup
Issued by NWS

Home | Current Version | Previous Version | Text Only | Print | Product List | Glossary On
Versions: 1 2 3 4 5 6 7 8 9 10 11 12 13 14 15 16 17 18 19 20 21 22 23 24 25 26 27
000
ASUS42 KTBW 211116
RWRFL
FLORIDA REGIONAL WEATHER ROUNDUP
NATIONAL WEATHER SERVICE TAMPA BAY RUSKIN FL
600 AM EST SAT JAN 21 2017

NOTE: "FAIR" INDICATES FEW OR NO CLOUDS BELOW 12,000 FEET WITH NO
SIGNIFICANT WEATHER AND/OR OBSTRUCTIONS TO VISIBILITY.

FLZ001>010-012>015-112-114-115-211200-
PANHANDLE FLORIDA

CITY           SKY/WX    TMP DP  RH WIND       PRES   REMARKS
PENSACOLA      CLOUDY    72  69  90 S17       29.72S
PENSACOLA NAS  CLOUDY    71  69  93 S12       29.71S
MILTON NAS     LGT RAIN  71  69  93 S14G21    29.73
CRESTVIEW      CLOUDY    71  69  93 S9G17     29.75F
DUKE FIELD     CLOUDY    72  69  92 S18       29.73S
VALPARAISO     CLOUDY    71  70  96 S17       29.74F
MARY ESTHER    MOCLDY    70  62  74 S16       29.72F
TRI COUNTY     CLOUDY    68  68 100 S7        29.79S
PANAMA CITY    CLOUDY    70  69  97 SE13      29.77F
TYNDALL AFB    PTCLDY    70  69  97 S15       29.79F
APALACHICOLA   CLOUDY    69  69 100 S8        29.82F

STATION/POSITION SKY/WX   TEMP    WIND        PRES    WAVE   SWELL
                          AIR SEA DIR/SP/G            HT/PER HT/PER
                          (F)     (DEG/KT/KT) (MB)    (FT/S) (FT/S)
30.1N   87.6W              71 67  170/ 19/ 23 1005.1F   4/ 6
28.8N   86.0W              76 75              1009.7    5/ 5
PANAMA CITY BEAC           69 67  140/ 16/ 17 1008.2F
TOWER C                    72     190/ 18/ 19 1010.5F
28.5N   84.5W              75 73  190/ 14/ 16 1011.1F   3/ 5

$$
FLZ011-016>038-118-127-128-134-139-239-211200-
NORTH FLORIDA

CITY           SKY/WX    TMP DP  RH WIND       PRES   REMARKS
MARIANNA       MOCLDY    68  66  93 S8        29.77F
TALLAHASSEE    CLOUDY    68  68 100 S8        29.83F
PERRY          CLOUDY    70  68  95 S6        29.88S
CROSS CITY     CLOUDY    68  66  94 S6        29.89S FOG
LAKE CITY      CLOUDY    68  68 100 S5        29.89F FOG
GAINESVILLE    CLOUDY    82  65  56 S7        29.91S HAZE
WILLISTON      FOG       64  64 100 CALM      29.91S VSB 0
PALATKA        MOCLDY    63  63 100 SW3       29.92S FOG
MAYPORT NAS    CLOUDY    67  65  93 SW7       29.90S
JACKSONVILLE   CLOUDY    67  67 100 SW8       29.89F FOG
JAX NAS        CLOUDY    67  66  97 SW7       29.91S FOG
FERNANDINA BEA CLOUDY    70  68  94 SW10      29.88S
ST AUGUSTINE   CLEAR     65  63  93 SW6       29.92S

STATION/POSITION SKY/WX   TEMP    WIND        PRES    WAVE   SWELL
                          AIR SEA DIR/SP/G            HT/PER HT/PER
                          (F)     (DEG/KT/KT) (MB)    (FT/S) (FT/S)
SHELL POINT      NOT AVBL
KEATON BEACH               67     160/ 12/ 15 1011.4F
CEDAR KEY                  67     180/ 12/ 13 1012.9F
FERNANDINA                 67 65  170/  4/  8 1012.7F
30.7N   81.3W                 64                N/A     2/13   2/13
MAYPORT                    67 64  230/  5/  8 1012.8S
31.4N   80.9W              63 61  220/ 10/ 14 1011.7F   2/13   2/13
ST AUGUSTINE               64 63  210/  7/  8 1013.5F

$$
FLZ040-043>046-052-053-057-058-063-144-211200-
INTERIOR CENTRAL FLORIDA

CITY           SKY/WX    TMP DP  RH WIND       PRES   REMARKS
OCALA          CLOUDY    63  59  88 S5        29.91F VSB 1/4
THE VILLAGES   FOG       63  63 100 CALM      29.83S VSB 1/2
LEESBURG       CLEAR     65  62  90 S6        29.93F
SANFORD        CLEAR     61  59  93 S3        29.93F
ORLANDO EXEC   CLEAR     63  62  97 SE3       29.93F
ORLANDO INTL   PTCLDY    63  62  97 SE3       29.94F FOG
KISSIMMEE      CLEAR     61  61 100 S3        29.95S FOG
WINTER HAVEN   PTCLDY    63  62  97 S3        29.95S FOG
LAKELAND       CLEAR     63  63 100 CALM      29.94S FOG
BARTOW         FOG       59 N/A N/A SE3       29.95S VSB<1/4
OKEECHOBEE     FOG       54  54 100 CALM      29.97F VSB 1/2

$$
FLZ041-047-054-059-064-141-147-211200-
EAST CENTRAL FLORIDA

CITY           SKY/WX    TMP DP  RH WIND       PRES   REMARKS
DAYTONA BEACH  CLEAR     59  59 100 CALM      29.93F
DELAND         CLEAR     61  59  94 S5        29.92F FOG
JFK SPACE CTR  CLEAR     61  59  94 SE3       29.93F FOG
CAPE CANAVERAL FOG       59  57  94 S3        29.94S VSB 3/4
PATRICK AFB    CLEAR     65  64  96 S7        29.95S
MELBOURNE      CLEAR     62  62 100 S7        29.95F FOG
VERO BEACH     FOG       59  59 100 CALM      29.97S VSB 1/4
FT PIERCE      FOG       56  56 100 CALM      29.97S VSB 1/4
STUART         CLEAR     64  63  94 SW3       29.99S FOG

STATION/POSITION SKY/WX   TEMP    WIND        PRES    WAVE   SWELL
                          AIR SEA DIR/SP/G            HT/PER HT/PER
                          (F)     (DEG/KT/KT) (MB)    (FT/S) (FT/S)
TRIDENT PIER     NOT AVBL
28.4N   80.5W                 70                N/A     2/13   2/13
27.5N   80.2W                 76                N/A     3/13   2/13

$$
FLZ050-056-061-142-242-148-248-149-249-151-251-155-255-
160-260-211200-
WEST CENTRAL FLORIDA

CITY           SKY/WX    TMP DP  RH WIND       PRES   REMARKS
CRYSTAL RIVER  CLOUDY    64  64 100 CALM      29.91S FOG
INVERNESS      FOG       59  59 100 CALM      29.93S VSB 1/4
BROOKSVILLE    FOG       61  61 100 S3        29.93R VSB 1/4
CLEARWATER AIR FAIR      64  64 100 S3        29.91F
ST PETE CLEARW CLEAR     67  65  93 S7        29.92S
TAMPA INTL     PTCLDY    68  65  90 SE5       29.93S
TAMPA EXEC     FOG       59  57  94 CALM      29.94S VSB 1/4
PLANT CITY     CLEAR     66  66 100 S5        29.95S FOG
MACDILL AFB    CLEAR     66  66 100 W6        29.92S
PETER O KNIGHT CLOUDY    70  68  94 S3        29.93S
ST PETERSBURG  CLEAR     66  66 100 S7        29.91S FOG
SARASOTA       CLEAR     63  61  93 SE7       29.91S
VENICE         FAIR      66  66 100 SE8       29.93F

STATION/POSITION SKY/WX   TEMP    WIND        PRES    WAVE   SWELL
                          AIR SEA DIR/SP/G            HT/PER HT/PER
                          (F)     (DEG/KT/KT) (MB)    (FT/S) (FT/S)
27.3N   84.2W                 79                N/A     3/ 5
CLEARWATER BEACH           70 69  150/  9/ 12 1013.0F
MIDDLE TAMPA BAY           67     170/  6/  8 1013.5F
VENICE                     70 69  140/ 10/ 11 1012.9F

$$
FLZ066-069-070-075>078-162-262-165-265-211200-
SOUTHWEST FLORIDA AND KEYS

CITY           SKY/WX    TMP DP  RH WIND       PRES   REMARKS
PUNTA GORDA    PTCLDY    62  61  96 SE7       29.96F FOG
FT MYERS       CLEAR     65  64  97 SE6       29.95S
SOUTHWEST INTL MOCLDY    63  61  93 SE7       29.96S FOG
NAPLES         PTCLDY    63  63 100 SE3       29.96S FOG
MARCO ISLAND   MOCLDY    61  57  88 E6        29.97S VSB 1/2
MARATHON       PTCLDY    76  68  76 S5        29.97R
KEY WEST NAS   MOCLDY    70  66  87 SE6       29.96S
KEY WEST INTL  MOCLDY    76  67  73 S7        29.96S

STATION/POSITION SKY/WX   TEMP    WIND        PRES    WAVE   SWELL
                          AIR SEA DIR/SP/G            HT/PER HT/PER
                          (F)     (DEG/KT/KT) (MB)    (FT/S) (FT/S)
NAPLES                        71              1014.3S
26.0N   85.6W              76 75  160/ 16/ 17 1011.2F   3/ 6   2/ 8
DRY TORTUGAS               76     170/ 12/ 13 1014.1R
SAND KEY                   76     190/ 11/ 13 1015.1R
LONG KEY                   75 74  200/  4/  5 1015.0F

$$
FLZ067-068-071>074-168-172>174-211200-
SOUTHEAST FLORIDA

CITY           SKY/WX    TMP DP  RH WIND       PRES   REMARKS
W PALM BEACH   PTCLDY    62  60  93 CALM      29.99S
FT LAUDER-EXEC CLEAR     62  58  86 CALM      29.98S
FT LAUDERDALE  PTCLDY    64  62  93 CALM      29.98S
POMPANO BEACH  CLEAR     62  59  90 CALM      29.98S
PEMBROKE PINES CLEAR     61  59  93 CALM      29.99F
OPA LOCKA      CLEAR     62  60  93 CALM      29.99S
MIAMI          PTCLDY    65  62  90 CALM      29.98S
WEST KENDALL   PTCLDY    64  62  93 CALM      29.98S
HOMESTEAD      CLEAR     61  61 100 CALM      29.98R

STATION/POSITION SKY/WX   TEMP    WIND        PRES    WAVE   SWELL
                          AIR SEA DIR/SP/G            HT/PER HT/PER
                          (F)     (DEG/KT/KT) (MB)    (FT/S) (FT/S)
PORT EVERGLADES            70     250/  2/  4 1015.0F
VIRGINIA KEY               69 80   70/  2/  3 1015.5S
LAKE WORTH                 68 76  250/  2/  4 1015.0R
FOWEY ROCKS                72 75  350/  2/  2 1015.8R

$$





USA.gov is the U.S. government's official web portal to all federal, state and local government web resources and services.